Wind_Speed
33 34 35 35 36 36 37 37 37 37 38 38 39 39 40 40 41 41 42 42 43 43 44 45 45 46 47 47 47 47 48 48 48 48 48 49 49 50 51 51 52 52 52
37 38 39 39 40 41 41 41 42 42 43 43 44 44 44 45 45 45 46 46 46 47 48 49 49 50 50 50 50 50 51 51 51 51 50 50 51 52 53 53 54 54 55
39 40 41 43 44 45 46 46 46 47 47 48 48 49 49 49 49 49 50 50 50 51 52 52 53 53 53 53 53 53 53 53 53 53 52 52 52 52 53 54 55 56 56
41 42 43 44 47 48 49 49 50 51 51 52 53 54 54 53 53 53 53 53 54 55 55 56 56 56 57 57 57 56 56 55 55 54 54 53 52 52 52 53 55 56 57
42 43 44 46 48 49 50 51 52 54 54 55 56 57 57 57 57 57 56 57 58 58 59 59 59 59 59 60 60 59 59 58 57 56 54 53 52 52 52 52 54 55 56
43 44 45 46 48 50 51 52 53 55 56 57 58 59 59 60 60 60 59 60 61 61 62 62 62 62 62 62 62 62 62 61 59 58 56 55 53 53 52 52 53 54 55
44 45 45 47 48 50 51 53 54 56 56 58 60 60 61 62 62 62 62 63 63 64 64 64 64 65 65 65 65 65 64 63 61 59 58 56 55 54 53 52 52 53 54
43 44 46 47 49 50 52 53 55 57 57 59 61 62 62 62 62 63 64 65 65 66 66 66 67 67 67 67 67 66 66 65 63 61 60 58 56 55 54 54 53 53 54
43 44 46 48 49 51 52 54 56 58 59 61 62 64 64 63 63 64 65 66 66 67 68 68 69 69 70 70 69 68 68 67 65 64 62 60 58 57 56 56 55 55 55
41 43 45 47 49 51 53 55 57 59 61 62 64 66 67 67 67 65 64 65 67 68 69 70 71 72 72 72 71 71 70 69 67 66 65 62 60 59 58 58 57 57 57
42 44 46 47 49 51 52 55 57 59 61 63 65 67 68 70 71 71 68 67 68 69 70 71 72 73 74 74 73 73 72 71 70 68 67 65 63 61 60 60 59 59 59
44 46 48 50 52 54 55 57 59 61 63 65 67 69 70 71 72 74 73 71 71 71 72 73 73 74 75 75 74 74 73 73 72 70 68 67 65 64 63 62 62 61 61
48 50 52 54 56 58 60 62 64 65 67 68 70 71 73 73 75 76 77 75 75 73 74 74 74 75 75 76 75 75 75 74 73 71 70 69 68 66 65 65 64 64 63
52 55 57 59 62 64 66 67 69 70 71 73 74 75 76 76 77 78 79 80 79 77 75 74 75 76 76 76 76 76 76 75 74 73 72 71 70 69 68 67 66 65 64
58 60 63 65 67 69 71 73 74 75 76 77 78 79 79 80 81 81 82 82 83 81 77 75 76 76 77 78 78 78 76 76 75 75 74 72 71 71 70 69 67 66 66
65 67 69 71 73 75 77 78 79 80 80 81 82 82 83 83 84 84 84 84 85 84 81 76 77 78 79 78 78 78 76 76 75 74 74 73 72 71 70 69 68 68 67
71 73 75 77 79 80 82 83 84 84 85 85 86 86 86 86 87 86 86 86 85 85 83 78 78 78 79 77 76 76 75 74 73 73 73 72 71 71 70 70 70 70 69
76 79 81 82 84 85 86 87 88 88 88 88 87 88 87 87 87 86 85 84 83 83 82 78 76 76 77 76 75 74 73 73 72 71 70 70 70 70 70 70 69 69 69
81 83 85 87 88 90 90 91 91 91 90 88 87 86 84 84 82 81 81 80 79 78 78 75 72 72 72 72 72 71 71 70 69 68 68 68 69 69 68 68 67 67 68
85 87 89 91 92 92 92 91 91 89 87 85 83 81 79 78 76 76 75 74 73 72 71 70 68 68 68 68 68 67 67 67 66 66 66 66 66 66 65 66 66 67 67
89 91 92 93 92 91 90 88 86 83 80 77 75 73 71 71 70 69 68 67 67 66 65 64 62 62 62 63 63 64 65 65 64 64 63 63 64 64 65 66 66 66 67
92 92 92 91 89 86 83 80 77 74 71 68 65 64 63 62 62 62 61 61 60 59 58 58 57 57 57 58 59 60 61 62 62 62 63 63 64 64 64 65 65 66 66
92 91 88 85 81 76 73 70 67 65 62 60 58 57 57 56 56 55 55 54 54 53 53 53 52 51 52 54 56 56 57 58 58 60 61 61 62 62 62 62 63 64 65
89 86 81 77 72 67 65 62 60 58 56 54 53 52 51 49 49 49 49 48 48 48 48 48 48 47 48 50 52 53 55 55 56 57 58 58 58 59 60 61 62 63 63
83 78 73 68 64 60 58 57 55 52 50 48 47 47 46 44 44 44 43 43 43 43 44 45 45 45 45 47 48 50 51 52 52 53 54 54 55 58 59 59 60 61 62
75 70 65 62 59 56 54 53 51 49 47 45 43 43 42 41 41 40 40 39 39 40 41 42 43 44 44 44 46 47 48 50 50 51 52 53 54 56 56 56 57 59 60
Wind_Direction
267 268 269 270 272 273 275 277 278 279 281 282 282 283 284 285 286 287 288 288 289 289 289 289 289 289 289 289 288 288 287 285 283 281 278 276 274 272 270 268 266 264 262
270 270 270 271 272 274 275 277 278 279 281 282 282 283 284 285 286 287 288 289 289 289 290 290 290 290 290 290 289 289 288 287 285 283 281 279 276 274 272 270 268 266 264
272 272 272 272 273 274 275 277 278 279 280 281 282 283 284 285 286 287 287 288 288 289 289 289 290 290 290 290 289 289 288 288 287 285 283 281 279 276 273 271 269 267 266
274 274 274 274 275 276 277 277 278 279 279 280 281 282 283 284 285 285 286 287 287 288 288 288 289 289 289 289 289 289 288 288 287 286 285 283 280 278 275 272 270 268 267
276 276 276 276 276 277 278 278 278 278 279 280 280 281 282 283 283 283 284 285 286 286 287 287 288 288 288 288 289 288 288 288 287 287 286 284 281 279 277 274 271 269 267
281 280 280 279 279 279 279 279 279 280 280 280 280 281 281 282 282 283 283 284 284 285 285 286 286 287 287 287 287 287 287 287 287 287 286 284 282 280 278 276 273 270 268
285 285 285 284 284 283 283 282 282 282 281 281 281 281 281 282 282 283 282 282 282 283 283 284 285 285 285 285 286 286 286 287 286 286 285 284 282 281 279 277 274 272 270
287 287 287 287 287 287 286 286 286 285 285 284 284 284 283 282 283 282 282 282 282 282 282 283 283 284 284 284 284 285 285 286 286 284 283 282 281 280 279 277 275 273 271
289 289 289 289 288 288 288 288 287 287 286 286 286 285 285 285 282 281 281 281 281 281 281 281 281 281 282 282 283 283 284 284 284 283 282 281 280 279 278 276 274 273 271
291 291 290 289 289 289 288 287 287 287 286 286 285 285 286 286 285 283 280 279 279 279 279 279 279 279 280 280 281 282 282 282 281 281 280 280 279 278 277 276 274 272 271
295 294 293 293 292 291 289 288 287 287 286 286 286 285 285 285 285 285 283 280 279 278 277 277 277 278 278 278 279 279 280 280 279 279 278 278 277 277 276 275 273 272 270
297 296 295 294 293 292 291 290 289 288 287 286 285 285 284 284 283 283 283 282 280 279 277 277 277 277 277 277 277 277 277 277 277 277 277 277 276 275 275 274 273 271 269
297 296 296 295 294 293 292 291 290 289 288 287 286 284 284 283 283 282 282 281 280 278 277 277 277 276 275 275 275 275 275 274 275 275 275 275 275 274 273 273 272 270 269
296 296 295 295 294 293 292 291 290 289 288 286 285 284 283 283 282 281 281 280 279 278 277 277 276 275 274 274 274 273 273 273 273 273 273 273 273 272 272 271 270 269 268
297 296 295 295 294 293 292 291 290 289 288 287 285 284 283 282 281 280 279 279 278 277 276 275 275 274 273 273 272 272 272 271 271 271 271 271 271 271 270 270 269 268 267
298 297 296 296 295 294 293 292 291 290 288 287 286 284 283 281 280 279 278 277 277 277 275 274 273 273 272 272 271 271 270 270 270 270 270 269 270 270 269 268 268 267 266
298 298 297 296 295 294 294 293 292 290 289 288 286 284 283 281 280 278 277 277 276 276 275 273 272 272 271 271 270 270 269 269 269 269 269 268 268 268 268 268 267 267 266
299 298 298 297 297 296 295 294 292 291 290 288 286 284 283 281 280 278 277 277 276 276 275 274 272 271 271 270 270 270 269 269 269 269 268 268 267 267 268 268 267 266 266
300 300 299 299 298 297 296 295 294 292 291 289 287 285 283 281 280 278 277 276 276 275 274 274 272 270 270 269 269 269 269 268 268 268 267 267 267 268 268 268 267 266 265
302 301 301 300 300 299 298 296 295 293 291 289 287 286 284 283 281 280 278 278 277 275 275 275 273 271 270 269 268 268 267 267 267 267 267 267 267 268 268 267 267 266 266
303 303 303 302 302 301 299 297 295 294 292 290 289 288 286 285 283 282 280 279 278 277 275 274 273 271 270 269 268 266 266 266 266 267 267 267 268 268 268 268 267 267 266
305 305 304 304 303 301 300 299 297 296 295 293 291 289 287 286 284 283 282 280 278 277 276 275 274 273 271 269 267 266 267 267 268 268 268 268 268 269 269 268 268 267 267
306 306 306 305 304 303 301 300 299 298 298 296 294 291 289 287 285 283 282 280 279 278 277 275 273 272 271 269 268 268 268 268 269 269 269 269 269 269 268 268 268 268 268
308 307 306 306 305 304 303 302 302 301 300 299 296 294 292 289 286 284 283 281 280 279 278 276 274 272 271 271 271 271 270 270 270 270 270 270 269 268 268 268 269 270 269
309 308 308 307 306 306 305 305 304 303 302 300 298 296 294 292 289 287 286 283 281 279 278 277 276 275 273 273 273 272 272 272 272 271 271 270 270 269 269 270 270 270 270
309 309 309 309 309 308 308 307 305 304 303 302 300 298 295 293 291 290 288 286 284 281 279 278 278 278 277 276 274 273 272 272 273 273 273 272 271 270 271 271 271 271 271
Height
5831 5830 5829 5829 5828 5826 5826 5825 5824 5823 5822 5821 5819 5818 5817 5816 5814 5813 5812 5810 5809 5807 5805 5804 5802 5801 5799 5798 5797 5796 5794 5793 5793 5792 5791 5791 5790 5790 5790 5791 5792 5793 5794
5824 5823 5822 5821 5820 5819 5818 5817 5816 5815 5813 5812 5811 5809 5808 5807 5805 5804 5802 5801 5799 5797 5795 5793 5791 5790 5788 5787 5785 5784 5783 5782 5781 5780 5779 5779 5778 5778 5778 5778 5779 5780 5781
5816 5815 5814 5813 5811 5810 5809 5808 5807 5806 5804 5803 5801 5799 5798 5797 5796 5794 5792 5790 5788 5786 5784 5782 5780 5778 5776 5774 5773 5772 5770 5769 5768 5767 5766 5766 5765 5765 5765 5765 5765 5766 5767
5807 5806 5805 5804 5802 5801 5800 5799 5797 5796 5794 5792 5790 5788 5787 5786 5785 5782 5781 5779 5777 5774 5772 5770 5768 5765 5763 5761 5760 5758 5757 5756 5755 5754 5753 5752 5752 5751 5751 5751 5751 5752 5753
5799 5797 5796 5795 5792 5791 5789 5788 5786 5785 5783 5781 5779 5777 5775 5774 5772 5770 5769 5766 5764 5761 5759 5757 5754 5752 5750 5748 5746 5745 5743 5742 5741 5740 5739 5738 5738 5737 5737 5737 5737 5738 5739
5789 5788 5787 5785 5782 5780 5778 5776 5774 5772 5771 5768 5765 5764 5763 5760 5758 5757 5756 5753 5750 5747 5745 5743 5740 5739 5736 5734 5732 5730 5729 5728 5727 5726 5725 5724 5723 5723 5722 5722 5722 5723 5724
5780 5778 5777 5775 5772 5770 5767 5765 5762 5760 5758 5754 5752 5750 5749 5746 5745 5743 5741 5738 5736 5733 5730 5728 5726 5723 5721 5719 5717 5716 5714 5713 5712 5711 5710 5710 5709 5708 5708 5707 5708 5708 5709
5771 5769 5766 5764 5761 5759 5756 5753 5750 5747 5744 5740 5737 5734 5733 5734 5732 5728 5725 5723 5721 5718 5715 5712 5710 5708 5705 5703 5702 5700 5699 5698 5697 5696 5695 5695 5694 5693 5693 5693 5693 5693 5694
5763 5760 5757 5753 5750 5747 5744 5740 5736 5732 5729 5726 5721 5717 5714 5715 5715 5713 5710 5707 5704 5701 5699 5696 5693 5691 5688 5687 5685 5684 5683 5682 5681 5680 5680 5679 5679 5678 5678 5677 5678 5678 5678
5753 5750 5747 5743 5740 5736 5732 5728 5723 5719 5714 5711 5707 5702 5698 5695 5692 5693 5695 5692 5688 5685 5682 5679 5676 5673 5671 5669 5668 5667 5666 5665 5664 5664 5663 5663 5662 5662 5661 5661 5661 5662 5662
5744 5740 5736 5732 5728 5724 5720 5715 5710 5705 5700 5696 5691 5687 5682 5677 5672 5669 5672 5673 5670 5667 5664 5661 5658 5655 5653 5651 5650 5649 5647 5647 5646 5646 5645 5645 5645 5645 5645 5645 5645 5645 5645
5734 5729 5725 5720 5716 5711 5706 5701 5695 5690 5685 5680 5674 5669 5664 5660 5656 5650 5648 5650 5649 5648 5644 5642 5639 5637 5634 5632 5631 5630 5629 5628 5627 5627 5627 5627 5627 5627 5627 5627 5627 5627 5628
5723 5718 5712 5707 5702 5696 5691 5685 5679 5674 5668 5662 5657 5651 5645 5641 5636 5631 5627 5626 5625 5626 5624 5623 5620 5617 5613 5611 5610 5609 5608 5608 5608 5608 5608 5608 5608 5608 5609 5609 5609 5609 5610
5711 5705 5699 5693 5687 5681 5674 5668 5662 5655 5649 5643 5637 5631 5625 5620 5614 5609 5605 5601 5600 5602 5603 5603 5599 5595 5592 5590 5588 5586 5587 5587 5587 5587 5588 5588 5589 5589 5589 5590 5590 5590 5591
5697 5691 5684 5677 5670 5663 5656 5649 5642 5635 5628 5622 5615 5609 5603 5598 5591 5586 5581 5577 5573 5575 5581 5583 5577 5574 5569 5567 5565 5564 5565 5565 5565 5566 5567 5568 5568 5568 5569 5569 5570 5571 5572
5681 5674 5667 5659 5652 5644 5635 5628 5621 5613 5606 5599 5592 5585 5579 5573 5567 5561 5556 5552 5547 5546 5551 5561 5555 5550 5545 5544 5542 5542 5542 5542 5543 5544 5545 5546 5547 5547 5548 5549 5550 5551 5551
5664 5656 5648 5640 5631 5622 5613 5605 5597 5589 5581 5574 5566 5558 5553 5546 5540 5536 5530 5526 5523 5519 5521 5533 5529 5526 5522 5520 5519 5518 5519 5520 5521 5522 5523 5524 5525 5526 5527 5528 5529 5530 5531
5644 5635 5627 5618 5608 5599 5589 5579 5571 5562 5554 5547 5539 5531 5525 5518 5513 5508 5503 5500 5498 5495 5493 5501 5505 5501 5499 5497 5496 5496 5497 5498 5499 5499 5500 5502 5503 5504 5505 5506 5507 5508 5510
5624 5614 5604 5594 5584 5573 5563 5552 5542 5534 5526 5518 5510 5503 5497 5490 5486 5481 5477 5474 5473 5470 5469 5472 5478 5477 5475 5474 5473 5474 5474 5475 5477 5478 5478 5480 5482 5483 5484 5485 5486 5488 5489
5602 5591 5580 5569 5558 5547 5535 5524 5514 5505 5497 5490 5483 5476 5470 5464 5460 5456 5453 5451 5449 5447 5447 5448 5452 5453 5453 5452 5451 5453 5453 5453 5455 5456 5458 5459 5461 5462 5463 5464 5466 5467 5468
5578 5566 5555 5544 5531 5519 5507 5496 5486 5478 5471 5465 5458 5452 5446 5440 5436 5433 5431 5429 5427 5426 5425 5426 5429 5430 5431 5431 5432 5431 5432 5433 5435 5436 5438 5439 5440 5442 5443 5443 5444 5445 5446
5554 5542 5529 5517 5506 5493 5481 5470 5460 5454 5448 5442 5437 5431 5426 5421 5416 5413 5410 5409 5408 5407 5407 5407 5408 5410 5410 5410 5410 5411 5412 5414 5417 5418 5417 5419 5420 5422 5422 5422 5422 5423 5424
5531 5518 5505 5492 5482 5471 5459 5450 5441 5433 5428 5422 5417 5412 5408 5403 5399 5396 5393 5391 5390 5389 5389 5389 5390 5392 5391 5391 5391 5393 5394 5395 5397 5397 5398 5400 5400 5401 5401 5401 5401 5402 5402
5507 5494 5482 5471 5460 5451 5440 5432 5424 5418 5412 5406 5400 5395 5391 5387 5383 5380 5378 5377 5375 5374 5372 5372 5374 5376 5375 5374 5374 5375 5376 5377 5379 5378 5379 5380 5380 5380 5380 5381 5381 5381 5381
5485 5473 5462 5451 5442 5434 5425 5416 5409 5403 5398 5392 5386 5381 5376 5373 5369 5366 5364 5363 5362 5360 5358 5358 5359 5359 5359 5359 5359 5359 5359 5360 5361 5360 5360 5361 5361 5360 5361 5362 5361 5360 5359
5464 5454 5445 5435 5426 5418 5410 5402 5395 5389 5384 5379 5374 5369 5364 5360 5357 5353 5351 5350 5349 5348 5346 5345 5345 5344 5344 5344 5343 5343 5343 5343 5344 5344 5342 5342 5342 5340 5342 5343 5341 5340 5339